Home   Weather   Oslo   Past weeks
Flag for Norway

Past Weather in Oslo, Norway — Yesterday and Last 2 Weeks

Now
31 °F

Chilly.


Feels Like: 31 °F
Forecast: 47 / 35 °F
Wind: 2 mph from Southwest

Location: Oslo-Blindern

Current Time: Mar 19, 2019 at 1:56:34 am

Latest Report: Mar 19, 2019 at 1:00 am


Visibility: 31 mi

Pressure: 29.97 "Hg

Humidity: 63%

Dew Point: 20 °F

Location of OsloLocation

Past Weather in Oslo — Graph

°F

Oslo Temperature Yesterday

Maximum temperature yesterday: 44 °F (at 2:00 pm)
Minimum temperature yesterday: 30 °F (at 10:00 pm)
Average temperature yesterday: 37 °F

High & Low Weather Summary for the Past Weeks

 TemperatureHumidityPressure
High44 °F (Mar 18, 2:00 pm)95% (Mar 4, 6:00 am)29.95 "Hg (Mar 4, 6:00 am)
Low17 °F (Mar 11, 7:00 am)33% (Mar 11, 2:00 pm)28.70 "Hg (Mar 17, 2:00 pm)
Average32 °F78%29.29 "Hg
* Reported Mar 4 12:00 am — Mar 19 12:00 am, Oslo. Weather by CustomWeather, © 2019

Note: Actual official high and low records may vary slightly from our data, if they occured in-between our weather recording intervals... More about our weather records

Advertising

Oslo Weather History for the Previous 24 Hours

Scroll right to see more
 ConditionsComfort  
Time TempWeatherWind HumidityBarometerVisibility
12:00 am
Tue, Mar 19
32 °FChilly.2 mph62%29.95 "Hg31 mi
11:00 pm
Mon, Mar 18
31 °FChilly.2 mph66%29.92 "Hg31 mi
10:00 pm30 °FClear.1 mph72%29.90 "Hg47 mi
9:00 pm31 °FChilly.2 mph70%29.87 "Hg31 mi
8:00 pm33 °FChilly.1 mph57%29.83 "Hg31 mi
7:00 pm36 °FPassing clouds.2 mph51%29.80 "Hg47 mi
6:00 pm39 °FChilly.3 mph47%29.75 "Hg31 mi
5:00 pm41 °FQuite cool.6 mph41%29.70 "Hg31 mi
4:00 pm43 °FPassing clouds.6 mph48%29.65 "Hg47 mi
3:00 pm44 °FQuite cool.7 mph47%29.59 "Hg31 mi
2:00 pm44 °FQuite cool.7 mph47%29.56 "Hg25 mi
1:00 pm42 °FPassing clouds.10 mph50%29.50 "Hg47 mi
12:00 pm42 °FQuite cool.9 mph53%29.47 "Hg28 mi
11:00 am40 °FQuite cool.8 mph57%29.41 "Hg28 mi
10:00 am38 °FScattered clouds.6 mph59%29.38 "Hg47 mi
9:00 am37 °FChilly.8 mph59%29.35 "Hg22 mi
8:00 am34 °FChilly.7 mph63%29.29 "Hg31 mi
7:00 am32 °FScattered clouds.3 mph67%29.26 "Hg47 mi
6:00 am33 °FChilly.5 mph68%29.21 "Hg31 mi
5:00 am34 °FChilly.9 mph67%29.15 "Hg31 mi
4:00 am34 °FChilly.8 mph73%29.12 "Hg31 mi
3:00 am34 °FChilly.8 mph76%29.06 "Hg31 mi
2:00 am35 °FSnow flurries. Overcast.9 mph76%29.00 "Hg22 mi
1:00 am35 °FLight rain. Overcast.8 mph81%28.97 "Hg14 mi
Weather by CustomWeather, © 2019

See weather overview